Wind_Speed
4 5 7 7 8 10 12 14 15 16 18 19 21 23 24 26 27 27 28 29 30 31 32 33 34 35 36 37 37 38 39 40 41 42 43 43 44 45 45 45 45 45 45 45
6 7 8 8 10 12 12 14 15 16 17 17 20 22 23 24 26 27 29 29 30 31 31 33 34 34 35 36 37 37 38 38 39 40 41 42 43 43 43 43 43 44 44 44
9 10 11 11 11 12 13 13 15 15 16 17 19 21 22 23 24 26 28 29 30 31 31 32 33 34 35 35 36 36 37 37 37 38 39 40 40 41 42 42 42 43 43 43
12 12 12 12 12 13 14 14 15 15 16 17 18 19 21 22 23 25 26 28 29 30 31 32 32 33 34 34 35 35 36 36 37 37 38 38 39 39 40 41 41 41 42 42
14 14 14 13 14 15 15 15 16 16 17 16 17 18 19 20 22 23 25 27 28 29 30 31 32 33 33 34 34 35 36 36 36 37 37 38 38 39 40 40 41 41 41 41
17 17 17 15 16 16 17 16 16 17 17 17 18 19 19 20 22 23 24 26 27 28 29 30 30 31 32 33 34 34 35 35 36 36 37 37 38 38 38 39 39 40 39 39
18 19 19 19 19 18 18 18 18 18 18 18 19 20 21 22 23 24 24 25 26 27 28 29 30 31 31 32 33 33 34 34 35 35 36 36 36 36 36 36 37 37 37 37
20 20 20 20 20 20 20 20 19 19 19 20 20 20 21 22 23 24 25 25 26 26 27 28 29 29 30 31 31 32 33 33 34 34 34 34 35 35 35 35 35 34 34 34
20 21 21 21 21 22 22 22 22 21 21 21 22 22 22 22 23 24 24 24 24 25 26 26 27 28 29 29 30 30 31 31 32 32 33 33 33 34 33 33 33 32 32 32
21 22 22 22 22 22 22 23 23 23 23 23 23 24 24 23 23 24 24 25 25 25 25 25 26 26 27 28 28 29 29 29 30 30 31 31 31 31 31 31 31 31 31 31
23 23 23 23 23 23 22 23 23 23 23 23 24 24 24 25 25 25 24 25 25 26 26 26 26 26 27 27 27 28 28 28 29 30 30 30 30 30 30 30 30 30 30 30
24 25 25 24 24 24 24 23 23 24 24 24 24 24 25 25 25 25 25 25 26 26 26 27 27 27 27 27 27 28 28 29 29 29 30 30 30 29 29 29 29 30 29 29
27 27 26 25 24 24 24 24 24 24 25 25 24 24 25 26 26 25 25 26 26 26 26 26 27 27 27 27 28 28 27 28 28 28 28 28 28 28 28 29 29 29 29 29
28 28 27 25 25 25 25 25 25 25 25 25 25 24 24 25 26 26 26 27 27 27 27 27 27 28 28 28 28 27 27 27 27 27 27 27 28 28 28 28 28 29 29 29
29 28 27 27 27 26 26 26 26 26 26 26 25 25 25 25 25 26 26 27 27 27 27 27 28 28 28 28 28 28 27 27 27 27 28 28 28 29 29 28 29 29 29 29
30 30 29 29 28 27 26 26 25 25 25 25 26 26 25 25 25 26 27 27 27 27 28 28 28 28 28 28 28 28 28 29 28 28 28 29 29 29 29 29 29 30 30 31
32 32 32 31 29 27 27 26 25 25 25 25 25 25 26 26 26 26 26 26 27 27 27 28 28 28 28 28 28 28 28 29 29 29 29 29 29 29 29 29 29 30 30 31
34 35 34 32 29 28 28 27 27 26 26 26 26 26 26 26 26 26 27 26 26 26 26 27 27 27 27 27 27 27 28 28 28 29 29 29 29 29 29 29 29 29 30 30
36 35 34 31 29 29 29 28 29 28 28 27 27 27 27 27 26 27 27 27 27 27 27 27 27 28 28 27 27 27 28 28 28 28 28 28 28 28 28 28 29 29 30 30
37 36 34 31 29 28 28 28 27 28 28 28 27 27 27 27 27 27 27 28 28 28 28 28 28 28 28 28 27 27 27 27 27 27 28 28 28 28 28 29 29 30 30 31
38 37 34 30 29 28 28 27 27 27 26 26 26 26 27 27 27 27 27 27 28 28 28 28 28 28 28 28 28 28 28 28 28 28 28 28 28 29 29 30 30 31 31 31
38 36 33 30 28 27 27 27 27 26 26 26 26 26 26 26 26 25 26 26 26 26 27 27 27 28 28 28 28 28 28 28 28 28 28 29 29 30 30 31 31 31 32 32
38 35 32 30 28 27 26 26 26 26 25 25 25 25 24 24 24 24 24 24 24 25 25 26 26 27 27 27 28 28 28 28 28 29 29 30 30 31 31 32 32 32 32 32
36 34 31 29 27 27 27 27 26 25 25 24 24 23 22 22 22 22 22 22 23 24 24 25 25 25 26 26 26 27 27 28 28 29 30 30 31 32 32 32 32 33 33 33
34 32 30 28 27 27 27 26 25 25 24 23 23 22 22 22 22 21 21 21 22 22 23 23 23 24 24 25 25 26 27 28 28 29 30 31 32 32 32 32 32 33 33 33
32 31 29 29 28 27 27 26 25 24 23 22 22 22 22 22 22 22 22 22 23 23 22 22 23 23 23 24 25 26 27 28 29 30 30 30 30 30 31 31 31 31 32 32
32 31 30 29 28 26 25 25 24 23 22 22 22 21 21 21 22 22 22 23 23 23 23 23 23 24 24 24 25 25 26 27 28 28 29 29 29 30 30 30 30 31 31 32
Wind_Direction
307 291 286 282 274 269 266 262 260 259 258 253 248 243 240 238 236 237 237 237 238 240 240 242 243 245 245 246 248 250 252 254 256 258 259 261 262 264 266 267 269 271 272 273
305 299 295 294 290 277 272 268 262 259 259 257 252 247 244 240 238 238 239 239 239 241 243 244 245 246 247 248 250 251 253 255 257 258 260 262 264 265 267 268 269 270 272 273
303 296 296 297 295 281 274 272 269 267 264 258 253 248 244 241 240 239 239 239 241 242 244 246 246 248 249 250 251 253 255 256 258 260 261 263 265 266 268 269 271 271 272 273
304 299 297 301 295 288 281 277 273 269 267 262 255 248 244 242 242 241 241 241 242 243 244 246 247 248 250 251 252 254 256 258 260 262 263 265 266 268 269 270 271 272 272 273
303 302 301 299 294 291 288 280 273 269 266 263 259 253 248 245 244 242 243 243 243 243 245 246 247 248 250 252 253 255 257 258 260 262 264 266 267 269 270 271 271 272 272 272
298 299 300 300 295 291 288 282 275 270 265 260 259 258 254 250 248 247 245 245 245 245 245 247 249 249 251 253 255 256 257 259 261 262 264 265 267 269 270 271 271 271 271 272
300 298 300 299 296 292 286 284 278 272 267 261 257 257 257 254 251 251 250 249 249 248 249 250 251 252 254 255 256 256 258 259 261 263 264 265 267 269 270 271 271 271 271 271
300 300 299 295 293 289 285 281 276 272 268 263 261 258 257 254 252 252 252 252 251 251 251 252 253 254 255 256 257 257 259 260 262 263 265 266 268 269 270 271 271 271 270 270
300 300 299 295 289 286 284 280 275 272 268 265 263 261 259 256 255 254 254 253 253 252 253 254 255 256 256 257 257 258 259 261 262 264 265 267 269 269 270 270 270 270 271 271
300 300 299 295 291 287 283 280 276 271 268 265 265 264 261 258 256 255 256 255 255 255 255 256 257 258 258 259 259 260 260 262 263 264 266 267 267 269 269 270 270 270 271 272
301 300 297 294 290 287 283 280 276 272 269 267 267 265 261 257 256 255 256 257 257 255 255 256 258 259 260 261 261 262 263 264 266 266 267 267 267 269 270 270 270 271 271 272
302 301 298 295 289 286 283 280 276 273 271 269 268 266 261 258 257 256 256 257 258 258 257 257 258 259 260 261 261 262 263 264 266 266 266 267 267 269 270 270 270 270 270 271
303 301 299 296 290 285 282 279 276 275 273 271 269 266 262 259 257 257 257 258 259 260 259 259 259 260 261 261 261 262 264 265 265 265 266 267 268 269 270 271 271 270 270 271
305 303 299 295 291 287 283 280 278 275 273 271 268 267 264 261 258 258 259 259 259 260 260 259 260 261 262 262 262 263 264 265 265 266 266 268 269 270 271 271 271 272 272 273
304 303 300 295 292 287 284 282 280 276 272 270 267 266 264 262 261 260 261 261 260 259 259 259 260 261 262 262 262 263 264 265 265 267 268 269 270 270 271 272 272 273 273 274
304 301 298 296 291 287 283 281 281 279 274 271 268 265 263 262 263 262 262 262 261 261 261 260 260 261 262 262 263 264 265 265 266 268 269 270 271 271 271 272 273 274 274 274
304 302 299 296 290 284 281 279 278 279 277 273 269 266 263 262 263 263 263 263 263 262 261 261 261 261 262 263 264 264 265 266 267 268 270 271 272 271 272 272 273 274 274 275
306 304 302 297 289 283 280 278 277 278 277 274 270 267 265 263 263 261 260 262 263 263 262 262 262 262 263 264 265 265 266 268 269 270 270 271 271 272 273 273 273 274 275 275
309 307 303 297 290 284 281 279 277 277 277 275 272 269 266 265 264 262 261 261 261 262 262 263 264 264 263 264 265 266 267 268 269 271 271 270 270 271 272 274 275 275 276 277
308 307 303 297 291 286 282 280 280 279 276 274 274 272 269 268 266 264 262 261 262 262 263 264 265 264 262 264 265 267 267 269 269 270 270 270 270 272 273 274 275 277 278 278
307 306 302 297 291 286 284 282 281 280 278 275 273 272 270 269 268 265 264 264 263 263 264 265 265 264 263 264 266 267 268 269 269 270 270 270 271 272 274 275 276 277 279 280
306 305 301 295 290 287 285 283 281 279 277 276 275 272 270 269 268 267 265 265 265 265 265 266 266 265 264 265 266 267 268 269 269 270 271 271 272 273 275 276 277 278 279 280
306 304 300 295 290 288 285 283 282 279 278 276 275 273 271 268 268 267 266 265 265 266 267 268 268 266 265 266 267 268 269 269 270 271 272 273 274 275 276 277 277 278 279 279
305 303 301 296 290 288 285 283 282 280 277 275 274 273 271 268 267 267 266 266 268 269 269 270 269 268 267 266 267 268 269 270 271 273 274 275 275 276 277 277 278 278 279 279
305 303 300 296 293 289 286 284 281 278 275 273 272 270 269 268 268 267 267 268 271 272 272 271 270 270 270 268 268 269 270 272 274 275 276 277 277 278 278 278 279 279 279 280
304 302 300 298 295 292 288 284 280 276 273 271 269 269 268 267 266 266 267 269 271 272 273 271 270 271 272 272 272 273 274 275 276 277 277 278 278 278 278 279 279 279 280 280
302 301 300 299 296 293 289 283 277 273 270 269 268 269 269 267 266 266 267 269 271 272 272 272 272 272 273 275 277 278 278 279 279 279 279 279 279 279 279 280 280 280 280 281
Height
5624 5623 5623 5622 5623 5622 5622 5621 5620 5621 5621 5623 5624 5625 5627 5630 5633 5636 5640 5643 5647 5650 5654 5657 5660 5663 5666 5669 5672 5674 5677 5679 5681 5682 5684 5685 5686 5687 5687 5688 5688 5688 5688 5688
5623 5622 5621 5621 5621 5619 5618 5618 5617 5617 5617 5618 5618 5619 5621 5624 5627 5630 5633 5637 5640 5643 5646 5649 5652 5655 5658 5660 5663 5665 5667 5669 5671 5672 5673 5674 5675 5676 5676 5676 5676 5677 5677 5676
5621 5620 5620 5619 5618 5616 5615 5614 5614 5613 5614 5613 5613 5614 5616 5618 5621 5624 5627 5630 5633 5635 5638 5641 5644 5646 5649 5651 5653 5655 5657 5659 5660 5662 5663 5664 5664 5665 5665 5665 5665 5665 5665 5665
5618 5618 5617 5619 5615 5613 5611 5611 5610 5609 5609 5609 5609 5609 5611 5613 5615 5618 5620 5623 5625 5628 5631 5633 5635 5638 5640 5642 5644 5646 5648 5649 5650 5652 5653 5653 5654 5654 5654 5654 5654 5654 5654 5654
5615 5614 5613 5614 5611 5609 5607 5607 5606 5605 5605 5605 5605 5606 5607 5608 5610 5612 5614 5616 5618 5620 5623 5625 5627 5629 5631 5633 5635 5637 5638 5640 5641 5642 5643 5643 5644 5644 5644 5644 5643 5643 5643 5643
5612 5610 5609 5610 5607 5604 5604 5602 5601 5600 5600 5600 5601 5602 5603 5603 5604 5605 5607 5609 5611 5613 5615 5617 5619 5620 5622 5624 5626 5627 5629 5630 5631 5632 5632 5633 5633 5633 5633 5633 5633 5633 5632 5632
5607 5605 5605 5603 5601 5600 5600 5599 5596 5595 5595 5595 5596 5596 5597 5597 5598 5600 5601 5602 5604 5605 5607 5609 5610 5612 5614 5615 5617 5618 5619 5620 5621 5622 5622 5623 5623 5623 5623 5623 5622 5622 5622 5621
5603 5601 5602 5598 5596 5595 5593 5591 5591 5590 5590 5590 5590 5590 5591 5591 5592 5593 5594 5595 5597 5598 5599 5601 5602 5604 5605 5606 5608 5609 5610 5611 5611 5612 5613 5613 5613 5613 5613 5613 5613 5612 5612 5611
5599 5599 5595 5592 5590 5588 5587 5586 5585 5584 5584 5584 5584 5584 5584 5585 5586 5586 5587 5588 5589 5591 5592 5593 5594 5595 5597 5598 5599 5600 5601 5601 5602 5603 5603 5603 5604 5604 5604 5603 5603 5603 5602 5602
5593 5592 5589 5587 5584 5583 5581 5580 5579 5578 5577 5577 5577 5577 5577 5578 5578 5579 5580 5581 5582 5583 5585 5586 5587 5588 5588 5589 5590 5591 5592 5593 5593 5594 5594 5594 5594 5594 5594 5594 5594 5594 5593 5593
5588 5586 5584 5581 5578 5577 5575 5574 5572 5571 5571 5570 5570 5570 5570 5571 5571 5572 5573 5574 5575 5576 5577 5578 5579 5580 5581 5581 5582 5583 5583 5584 5585 5585 5585 5585 5585 5585 5585 5585 5585 5585 5584 5584
5582 5579 5576 5574 5572 5570 5568 5567 5566 5565 5564 5563 5562 5562 5562 5563 5564 5565 5566 5567 5568 5568 5569 5570 5571 5572 5573 5573 5574 5575 5575 5575 5576 5576 5576 5577 5577 5577 5576 5576 5576 5576 5575 5575
5574 5571 5568 5566 5564 5562 5561 5560 5558 5557 5556 5556 5555 5554 5554 5555 5556 5557 5558 5559 5560 5561 5561 5562 5563 5564 5565 5565 5566 5566 5566 5567 5567 5567 5568 5568 5568 5568 5568 5568 5567 5567 5567 5566
5567 5564 5561 5559 5557 5555 5553 5552 5551 5550 5548 5548 5547 5547 5547 5547 5548 5549 5550 5551 5551 5552 5553 5554 5555 5556 5556 5557 5557 5558 5558 5558 5559 5559 5559 5559 5559 5559 5559 5559 5559 5558 5558 5557
5560 5557 5554 5551 5549 5547 5546 5544 5543 5542 5541 5540 5539 5539 5539 5540 5540 5541 5541 5542 5543 5544 5545 5546 5546 5547 5548 5548 5549 5549 5550 5550 5550 5551 5551 5551 5551 5551 5550 5550 5550 5549 5549 5548
5553 5549 5546 5544 5541 5539 5537 5536 5535 5533 5532 5532 5531 5531 5531 5532 5532 5532 5533 5534 5534 5535 5536 5537 5538 5538 5539 5539 5540 5540 5541 5541 5542 5542 5542 5542 5542 5541 5541 5541 5541 5540 5540 5539
5544 5541 5538 5535 5532 5530 5529 5528 5526 5525 5524 5523 5523 5523 5523 5523 5524 5524 5525 5525 5526 5527 5527 5528 5529 5529 5530 5531 5531 5531 5532 5532 5532 5533 5533 5532 5532 5532 5532 5531 5531 5531 5530 5529
5535 5531 5528 5524 5522 5521 5520 5519 5518 5517 5516 5515 5514 5514 5514 5515 5515 5515 5516 5517 5518 5518 5519 5519 5520 5521 5521 5522 5522 5523 5523 5523 5523 5523 5523 5523 5523 5523 5522 5522 5521 5521 5520 5519
5526 5521 5518 5514 5512 5511 5510 5509 5508 5508 5507 5506 5506 5505 5506 5506 5506 5507 5507 5508 5509 5509 5510 5510 5511 5511 5512 5513 5513 5513 5514 5514 5514 5514 5514 5514 5513 5513 5513 5512 5512 5511 5511 5510
5516 5512 5508 5505 5503 5501 5500 5499 5498 5498 5497 5497 5496 5496 5496 5497 5497 5497 5498 5499 5500 5500 5501 5501 5501 5502 5502 5503 5504 5504 5505 5505 5505 5505 5505 5505 5504 5504 5504 5503 5502 5502 5501 5500
5507 5502 5498 5496 5494 5492 5491 5490 5489 5488 5488 5487 5487 5487 5487 5487 5487 5488 5489 5490 5490 5491 5491 5492 5492 5492 5493 5494 5495 5495 5495 5495 5495 5495 5495 5495 5495 5495 5494 5494 5493 5492 5491 5490
5497 5492 5489 5486 5484 5483 5481 5480 5480 5479 5478 5478 5478 5478 5478 5478 5478 5479 5479 5480 5481 5481 5482 5482 5483 5483 5484 5485 5485 5486 5486 5486 5486 5486 5486 5486 5485 5485 5484 5484 5483 5482 5481 5480
5487 5483 5479 5477 5475 5474 5473 5471 5470 5470 5469 5469 5469 5468 5468 5469 5469 5470 5471 5471 5472 5473 5473 5473 5474 5474 5475 5475 5476 5476 5476 5476 5476 5476 5476 5476 5475 5475 5474 5473 5472 5471 5470 5469
5477 5474 5470 5468 5466 5465 5464 5463 5461 5461 5460 5460 5460 5460 5460 5460 5461 5461 5462 5463 5464 5464 5465 5465 5465 5465 5466 5466 5466 5467 5467 5467 5467 5467 5466 5466 5465 5464 5463 5462 5461 5460 5459 5458
5469 5465 5462 5460 5458 5457 5455 5454 5453 5452 5452 5451 5451 5452 5452 5452 5453 5454 5454 5455 5455 5456 5456 5456 5457 5457 5457 5457 5458 5458 5458 5457 5457 5457 5456 5455 5454 5453 5452 5451 5450 5449 5448 5447
5460 5457 5455 5452 5450 5448 5447 5445 5444 5444 5444 5444 5444 5444 5444 5445 5445 5446 5446 5447 5447 5448 5448 5448 5449 5449 5449 5449 5449 5449 5448 5448 5447 5446 5445 5444 5443 5442 5441 5440 5439 5438 5437 5436
5453 5450 5447 5444 5442 5440 5438 5437 5436 5436 5436 5436 5436 5436 5437 5437 5438 5438 5439 5439 5440 5440 5440 5441 5441 5441 5441 5441 5440 5440 5439 5438 5437 5436 5435 5434 5433 5432 5431 5430 5428 5427 5426 5425